[[{"header":{"parameterUnit":"m.s-1","parameterCategory":1,"la1":30.2991,"la2":30.254,"lo1":-89.0895,"lo2":-89.0444,"dy":0.0017,"dx":0.0017,"nx":28,"ny":28,"refTime":"2024-10-12T03:00:00:Z","depth":0,"parameterNumber":2,"parameterNumberName":"U-component_of_WINDS"},"data":[0,0,0,0,0,0,0,0,0,0,0,0,0,0,0,0,0,0,0,0,0,0,0,0,0,0,0,0,0,0,0,0,0,0,0,0,0,0,0,0,0,0,0,0,0,0,0,0,0,0,0,0,0,0,0,0,0,0,-0.4334,-0.4334,0,-0.4291,-0.429,-0.429,-0.4248,-0.4247,-0.4247,-0.4246,-0.4201,-0.42,-0.42,0,0,0,0,0,0,0,0,0,0,0,0,0,-0.4381,-0.438,-0.4334,-0.4334,-0.4333,-0.4291,-0.429,-0.429,-0.4248,-0.4247,-0.4247,-0.4246,-0.4201,-0.42,-0.42,0,0,0,0,0,0,0,0,0,0,0,0,0,-0.4351,-0.438,-0.4334,-0.4307,-0.4304,-0.4291,-0.429,-0.429,-0.4248,-0.4247,-0.4247,-0.4246,-0.4202,-0.42,-0.4199,-0.4209,0,0,-0.4196,-0.4196,0,0,0,0,0,0,0,0,-0.4353,-0.435,-0.4312,-0.4309,-0.4306,-0.4274,-0.429,-0.4263,-0.4248,-0.4269,-0.4246,-0.4245,-0.4226,-0.4223,-0.4216,-0.4207,-0.4205,-0.4196,-0.4195,-0.4195,-0.4195,0,0,0,0,0,0,0,-0.4355,-0.4351,-0.4317,-0.4311,-0.4308,-0.4297,-0.4292,-0.4285,-0.4253,-0.4268,-0.4264,-0.426,-0.4224,-0.4218,-0.4215,-0.4204,-0.4196,-0.4195,-0.4195,-0.4194,-0.4203,-0.4203,0,0,0,0,0,0,-0.4361,-0.4353,-0.4318,-0.4316,-0.4328,-0.4297,-0.4291,-0.4285,-0.4253,-0.4247,-0.4261,-0.4258,-0.422,-0.4216,-0.4213,-0.4224,-0.4195,-0.4194,-0.4193,-0.4202,-0.4203,-0.4204,0,0,0,0,0,0,-0.4362,-0.4359,-0.432,-0.4334,-0.4328,-0.4297,-0.429,-0.4285,-0.4278,-0.4247,-0.4242,-0.426,-0.4219,-0.4215,-0.4211,-0.4221,-0.4194,-0.4193,-0.4201,-0.4202,-0.4203,-0.4244,0,0,0,0,0,0,-0.4364,-0.4359,-0.4362,-0.4334,-0.4327,-0.4318,-0.4291,-0.4284,-0.4276,-0.4273,-0.4245,-0.424,-0.4218,-0.4213,-0.421,-0.4219,-0.4192,-0.42,-0.4201,-0.4203,-0.4241,-0.4246,-0.425,0,0,0,0,0,-0.4366,-0.4375,-0.4363,-0.4359,-0.4331,-0.4319,-0.4315,-0.429,-0.4277,-0.4281,-0.4261,-0.4241,-0.4221,-0.4213,-0.4209,-0.4219,-0.4199,-0.4201,-0.4203,-0.4239,-0.4245,-0.425,0,0,0,0,0,0,-0.4404,-0.437,-0.4357,-0.4357,-0.4341,-0.4312,-0.4315,-0.4297,-0.4285,-0.4282,-0.4251,-0.4245,-0.4245,-0.4231,-0.4223,-0.4227,-0.4207,-0.4208,-0.4236,-0.4242,-0.4246,-0.4249,-0.4191,0,0,0,0,0,-0.4413,-0.4406,-0.4377,-0.438,-0.4373,-0.4346,-0.434,-0.4322,-0.4305,-0.4298,-0.4278,-0.4262,-0.4252,-0.4246,-0.4235,-0.4239,-0.4233,-0.4244,-0.4249,-0.4253,-0.4254,-0.4257,-0.4262,-0.421,-0.421,-0.421,0,0,-0.443,-0.4411,-0.4409,-0.4388,-0.4373,-0.4368,-0.434,-0.4335,-0.4331,-0.4297,-0.4292,-0.4278,-0.4257,-0.4258,-0.4257,-0.4247,-0.4267,-0.4255,-0.4259,-0.4258,-0.426,-0.4265,-0.4269,-0.4211,-0.4211,-0.4211,0,0,-0.4459,-0.4444,-0.4445,-0.4432,-0.4412,-0.4394,-0.4394,-0.4368,-0.4358,-0.4353,-0.4328,-0.4322,-0.4306,-0.4293,-0.4284,-0.4311,-0.4292,-0.4308,-0.4332,-0.4335,-0.4339,-0.4343,-0.4354,-0.4358,-0.431,-0.431,-0.431,0,-0.4484,-0.4474,-0.4448,-0.4445,-0.4437,-0.4407,-0.4409,-0.4397,-0.4374,-0.437,-0.4358,-0.4338,-0.4322,-0.432,-0.4327,-0.4321,-0.4321,-0.4311,-0.4341,-0.4344,-0.4347,-0.4357,-0.4361,-0.4312,-0.4312,-0.4312,-0.4312,0,-0.4506,-0.45,-0.4503,-0.4483,-0.4475,-0.4475,-0.4449,-0.4445,-0.4428,-0.4412,-0.4408,-0.4389,-0.4374,-0.4372,-0.4356,-0.4369,-0.4363,-0.4347,-0.4326,-0.4355,-0.4364,-0.4367,-0.4315,-0.4315,-0.4314,-0.4313,0,0,-0.4556,-0.4523,-0.4525,-0.4516,-0.4492,-0.4487,-0.4486,-0.4473,-0.447,-0.4455,-0.4454,-0.4442,-0.4427,-0.4417,-0.4399,-0.4402,-0.4427,-0.4386,-0.4385,-0.4395,-0.4441,-0.4454,-0.4459,-0.4414,-0.4415,-0.4415,-0.4443,0,-0.4582,-0.4578,-0.4556,-0.4558,-0.4553,-0.4526,-0.4525,-0.451,-0.4495,-0.4489,-0.4472,-0.4465,-0.4445,-0.4439,-0.4441,-0.4423,-0.4436,-0.4421,-0.4413,-0.4413,-0.4419,-0.4463,-0.4476,-0.4504,-0.4447,-0.4447,-0.4447,0,-0.4611,-0.46,-0.4602,-0.458,-0.4577,-0.4576,-0.4563,-0.4557,-0.4541,-0.453,-0.4521,-0.4501,-0.4499,-0.448,-0.4477,-0.4467,-0.4463,-0.4454,-0.4455,-0.4453,-0.4432,-0.4464,-0.4512,-0.4516,-0.4452,-0.4452,-0.4452,0,-0.4649,-0.4634,-0.4634,-0.4627,-0.4601,-0.4602,-0.4591,-0.4574,-0.4568,-0.4557,-0.4553,-0.4541,-0.4535,-0.4527,-0.4505,-0.4493,-0.4505,-0.4484,-0.4496,-0.4497,-0.45,-0.45,-0.4549,-0.4497,-0.4497,-0.4496,-0.4496,0,-0.468,-0.4683,-0.4651,-0.4651,-0.4654,-0.4629,-0.4632,-0.4619,-0.4604,-0.4602,-0.4577,-0.4575,-0.4546,-0.4541,-0.4524,-0.4525,-0.4522,-0.4514,-0.4509,-0.4516,-0.4518,-0.4513,-0.4511,-0.4498,-0.4497,-0.4497,-0.4497,0,-0.4723,-0.4702,-0.47,-0.4676,-0.467,-0.4674,-0.4653,-0.4653,-0.4637,-0.4634,-0.4632,-0.4607,-0.4601,-0.4578,-0.4565,-0.4554,-0.4561,-0.4551,-0.4566,-0.4563,-0.4578,-0.4577,-0.4626,-0.4631,-0.4575,-0.4576,-0.4576,0,-0.4744,-0.4746,-0.4723,-0.472,-0.471,-0.4705,-0.4699,-0.4675,-0.467,-0.4653,-0.4655,-0.4646,-0.4638,-0.4629,-0.461,-0.46,-0.4591,-0.4609,-0.4589,-0.4597,-0.4593,-0.4593,-0.4594,-0.4613,-0.4614,-0.4614,-0.4615,0,-0.4785,-0.4775,-0.4767,-0.4757,-0.4752,-0.4742,-0.4731,-0.473,-0.4703,-0.4699,-0.4692,-0.4686,-0.4674,-0.4666,-0.4654,-0.4643,-0.4625,-0.4622,-0.4624,-0.4631,-0.464,-0.4637,-0.4578,-0.462,-0.462,-0.4619,-0.4619,-0.4619,-0.4818,-0.4819,-0.4803,-0.4797,-0.4786,-0.4777,-0.4776,-0.4761,-0.4755,-0.4744,-0.473,-0.4725,-0.471,-0.4693,-0.4683,-0.468,-0.4669,-0.4673,-0.4674,-0.4675,-0.4679,-0.4641,-0.4677,-0.4677,-0.4677,-0.4677,-0.4677,0,-0.4858,-0.4847,-0.4841,-0.4828,-0.4823,-0.4807,-0.4795,-0.4792,-0.4788,-0.4776,-0.4769,-0.4762,-0.4755,-0.4736,-0.4728,-0.4728,-0.472,-0.4727,-0.4727,-0.4725,-0.4688,-0.4687,-0.4734,-0.4734,-0.4734,-0.4734,-0.4734,-0.4734,-0.4878,-0.4879,-0.4868,-0.4864,-0.4853,-0.4849,-0.4844,-0.4836,-0.4826,-0.482,-0.4814,-0.4802,-0.4788,-0.4778,-0.4771,-0.4766,-0.4764,-0.4775,-0.4767,-0.4733,-0.4727,-0.4722,-0.4721,-0.4774,-0.4774,-0.4804,-0.4804,-0.4804]},{"header":{"parameterUnit":"m.s-1","parameterCategory":1,"la1":30.2991,"la2":30.254,"lo1":-89.0895,"lo2":-89.0444,"dy":0.0017,"dx":0.0017,"nx":28,"ny":28,"refTime":"2024-10-12T03:00:00:Z","depth":0,"parameterNumber":3,"parameterNumberName":"V-component_of_WINDS"},"data":[0,0,0,0,0,0,0,0,0,0,0,0,0,0,0,0,0,0,0,0,0,0,0,0,0,0,0,0,0,0,0,0,0,0,0,0,0,0,0,0,0,0,0,0,0,0,0,0,0,0,0,0,0,0,0,0,0,0,1.8245,1.8245,0,1.8233,1.8232,1.8232,1.8249,1.825,1.8251,1.8251,1.8237,1.8236,1.8235,0,0,0,0,0,0,0,0,0,0,0,0,0,1.8281,1.828,1.8245,1.8245,1.8245,1.8233,1.8232,1.8232,1.8249,1.825,1.8251,1.8252,1.8237,1.8236,1.8235,0,0,0,0,0,0,0,0,0,0,0,0,0,1.8267,1.828,1.8245,1.8252,1.8253,1.8233,1.8232,1.8232,1.8249,1.825,1.8251,1.8252,1.8238,1.8236,1.8235,1.8207,0,0,1.823,1.823,0,0,0,0,0,0,0,0,1.8267,1.8265,1.8251,1.8252,1.8252,1.8244,1.824,1.8224,1.8249,1.825,1.8251,1.8252,1.8238,1.8237,1.8232,1.8207,1.8206,1.823,1.8229,1.8229,1.8228,0,0,0,0,0,0,0,1.8268,1.8266,1.824,1.8251,1.8251,1.8255,1.8254,1.8237,1.8239,1.825,1.8252,1.825,1.8239,1.8234,1.8232,1.8206,1.823,1.8229,1.8228,1.8228,1.8153,1.8152,0,0,0,0,0,0,1.8269,1.8267,1.8241,1.824,1.8262,1.8253,1.8252,1.8245,1.824,1.824,1.8249,1.8251,1.8236,1.8234,1.8232,1.8196,1.8229,1.8227,1.8227,1.8154,1.8153,1.8152,0,0,0,0,0,0,1.827,1.8266,1.8241,1.8254,1.8251,1.8252,1.8244,1.8245,1.824,1.8239,1.8239,1.8244,1.8236,1.8234,1.8213,1.8196,1.8227,1.8226,1.8156,1.8154,1.8152,1.8127,0,0,0,0,0,0,1.8271,1.8267,1.8257,1.8253,1.825,1.8223,1.8243,1.8244,1.8237,1.8239,1.8234,1.8234,1.8237,1.8215,1.8211,1.8195,1.8224,1.8157,1.8155,1.8153,1.8129,1.8125,1.8121,0,0,0,0,0,1.8272,1.8251,1.8257,1.8253,1.8238,1.8222,1.822,1.8225,1.8236,1.8226,1.8224,1.8234,1.8199,1.8212,1.8209,1.8192,1.8158,1.8155,1.8153,1.8131,1.8126,1.8121,0,0,0,0,0,0,1.8253,1.8251,1.8257,1.8235,1.8228,1.8225,1.8212,1.8219,1.821,1.8212,1.8218,1.8216,1.8193,1.819,1.8205,1.8163,1.818,1.8177,1.8165,1.816,1.8156,1.8156,1.8223,0,0,0,0,0,1.8247,1.8235,1.8233,1.8213,1.821,1.8212,1.8205,1.8209,1.8202,1.82,1.8197,1.819,1.8177,1.8169,1.8157,1.813,1.8127,1.8116,1.8112,1.8108,1.8104,1.8086,1.808,1.8143,1.8143,1.8143,0,0,1.8233,1.823,1.8222,1.821,1.8205,1.8191,1.8209,1.8195,1.8183,1.8198,1.8176,1.8174,1.8166,1.8141,1.813,1.8138,1.8086,1.8105,1.8102,1.81,1.8083,1.8077,1.8071,1.8142,1.8142,1.8142,0,0,1.82,1.8198,1.8179,1.8174,1.8167,1.8168,1.8164,1.8159,1.8157,1.8137,1.8146,1.8132,1.8111,1.8104,1.8098,1.8059,1.8066,1.8055,1.8032,1.8014,1.8009,1.8005,1.7987,1.7982,1.8052,1.8052,1.8052,0,1.8183,1.8163,1.8169,1.8153,1.8145,1.8157,1.8137,1.8132,1.8122,1.8116,1.8126,1.8097,1.8093,1.8064,1.8054,1.805,1.8042,1.8055,1.801,1.8005,1.8001,1.7985,1.7979,1.805,1.8051,1.8051,1.8051,0,1.8141,1.8127,1.8113,1.8102,1.8093,1.8075,1.8077,1.8067,1.8071,1.8071,1.8047,1.8043,1.8028,1.8022,1.8027,1.7993,1.7998,1.8009,1.8026,1.7993,1.7978,1.7972,1.8048,1.8049,1.8049,1.805,0,0,1.8097,1.8088,1.8082,1.8075,1.8067,1.8056,1.8037,1.8023,1.8013,1.8006,1.7988,1.7968,1.7977,1.797,1.7973,1.7958,1.7923,1.797,1.797,1.7959,1.7881,1.7871,1.7864,1.7928,1.7927,1.7926,1.7881,0,1.8062,1.803,1.8033,1.8002,1.7987,1.7997,1.798,1.7972,1.7971,1.7956,1.7955,1.7939,1.7954,1.7949,1.7934,1.793,1.7907,1.7934,1.791,1.7909,1.7909,1.7857,1.7847,1.7804,1.7875,1.7874,1.7874,0,1.8016,1.8005,1.7972,1.7963,1.7957,1.7942,1.7928,1.7915,1.7906,1.7905,1.7895,1.7901,1.788,1.7898,1.7868,1.7886,1.7876,1.7873,1.7871,1.7867,1.7887,1.7848,1.7791,1.7784,1.7865,1.7866,1.7866,0,1.7983,1.796,1.7937,1.7931,1.7921,1.791,1.7905,1.7896,1.7887,1.7874,1.7867,1.7852,1.7844,1.7831,1.7831,1.7845,1.7799,1.7819,1.7795,1.7795,1.7784,1.7784,1.7721,1.7782,1.7782,1.7782,1.7782,0,1.7942,1.7921,1.7921,1.7906,1.7882,1.7886,1.7861,1.7857,1.7849,1.7832,1.784,1.7824,1.7826,1.7809,1.781,1.7782,1.7779,1.7776,1.7775,1.7773,1.7773,1.7765,1.7767,1.778,1.7781,1.7781,1.7781,0,1.79,1.79,1.7875,1.7867,1.7864,1.7846,1.7838,1.7823,1.7821,1.78,1.7795,1.7792,1.7772,1.7771,1.7749,1.7748,1.7714,1.7718,1.7717,1.7716,1.7692,1.7693,1.762,1.7609,1.7679,1.7679,1.7678,0,1.7873,1.7856,1.7846,1.7835,1.7829,1.7812,1.7802,1.7804,1.7793,1.7779,1.7764,1.7745,1.773,1.7697,1.7692,1.7674,1.7676,1.7652,1.7673,1.767,1.7672,1.7671,1.7668,1.7647,1.7646,1.7645,1.7645,0,1.7823,1.7823,1.7808,1.7792,1.7779,1.7767,1.7755,1.7745,1.7746,1.7732,1.7712,1.77,1.7676,1.7655,1.7637,1.763,1.7636,1.7638,1.7631,1.7627,1.7626,1.7623,1.7702,1.7639,1.764,1.764,1.7641,1.7641,1.7786,1.777,1.7759,1.7741,1.7732,1.7721,1.7705,1.77,1.7684,1.7664,1.7666,1.7642,1.763,1.7606,1.7598,1.7578,1.7586,1.7577,1.7574,1.7571,1.7566,1.7631,1.7575,1.7575,1.7575,1.7575,1.7575,0,1.7733,1.7726,1.771,1.7692,1.7677,1.7685,1.7672,1.7658,1.7637,1.7625,1.7609,1.7584,1.7563,1.7556,1.7535,1.752,1.7522,1.7515,1.7514,1.7512,1.7562,1.7569,1.7513,1.7513,1.7513,1.7513,1.7513,1.7513,1.7704,1.7677,1.7675,1.7643,1.7636,1.7612,1.7603,1.7591,1.7582,1.7553,1.7536,1.7531,1.752,1.7498,1.7478,1.7476,1.7467,1.7457,1.7456,1.7503,1.7509,1.7515,1.7521,1.7456,1.7456,1.7407,1.7406,1.7406]}]]